Location: Unspecified
(17.6330°N, 0.0000°E)
Time: 05:27:46
(UTC+00:00)

A-11 Canister half - Pass Details

Date: 19 June 2019
Orbit: 1514 x 1686 km, 47.2° (Epoch: 12 October)

Event Time Altitude Azimuth Distance (km) Brightness Sun altitude
Rises 18:57:52 0° 317° (NW) 4,692 13.2 -5.3°
Reaches altitude 10° 19:00:55 10° 317° (NW) 3,694 12.4 -6.0°
Maximum altitude 19:10:14 89° 48° (NE) 1,514 9.0 -7.9°
Drops below altitude 10° 19:19:28 10° 138° (SE) 3,673 10.4 -9.9°
Enters shadow 19:19:44 - 138° (SE) 3,758 10.4 -9.9°
Sets 19:22:30 0° 138° (SE) 4,664 - -10.5°
